Time,TemperatureF,DewpointF,PressureIn,WindDirection,WindDirectionDegrees,WindSpeedMPH,WindSpeedGustMPH,Humidity,HourlyPrecipIn,Conditions,Clouds,dailyrainin,SoftwareType,DateUTC
2013-07-04 00:02:00,74.0,70.0,30.18,SSE,161,1.0,1.0,87,0.00,,,-99.99,,2013-07-04 04:02:00,
2013-07-04 00:11:00,74.0,70.0,30.18,SSE,161,1.0,1.0,87,0.00,,,-99.99,,2013-07-04 04:11:00,
2013-07-04 00:22:00,74.0,70.0,30.18,SSE,161,1.0,1.0,87,0.00,,,-99.99,,2013-07-04 04:22:00,
2013-07-04 00:33:00,74.0,70.0,30.18,SSE,161,1.0,1.0,87,0.00,,,-99.99,,2013-07-04 04:33:00,
2013-07-04 00:43:00,74.0,70.0,30.18,SSE,161,1.0,1.0,87,0.00,,,-99.99,,2013-07-04 04:43:00,
2013-07-04 09:53:00,81.0,71.0,30.21,SSW,199,0.0,0.0,72,-99.99,,,-99.99,,2013-07-04 13:53:00,
2013-07-04 10:02:00,81.0,70.0,30.21,SSE,151,0.0,0.0,70,-99.99,,,-99.99,,2013-07-04 14:02:00,
2013-07-04 10:12:00,81.0,70.0,30.21,SSE,151,0.0,0.0,70,-99.99,,,-99.99,,2013-07-04 14:12:00,
2013-07-04 10:22:00,81.0,70.0,30.21,SSE,154,0.0,0.0,70,-99.99,,,-99.99,,2013-07-04 14:22:00,
2013-07-04 10:43:00,81.0,71.0,30.20,SSW,193,1.0,1.0,71,0.00,,,0.00,,2013-07-04 14:43:00,
2013-07-04 10:53:00,83.0,71.0,30.20,SE,128,1.0,1.0,68,0.00,,,0.00,,2013-07-04 14:53:00,
2013-07-04 11:02:00,83.0,71.0,30.20,SE,128,1.0,1.0,68,0.00,,,0.00,,2013-07-04 15:02:00,
2013-07-04 11:11:00,84.0,70.0,30.20,SSE,148,4.0,4.0,64,0.00,,,0.00,,2013-07-04 15:11:00,
2013-07-04 11:23:00,85.0,71.0,30.20,SW,218,0.0,0.0,63,0.00,,,0.00,,2013-07-04 15:23:00,
2013-07-04 11:33:00,84.0,69.0,30.19,SW,224,0.0,0.0,61,0.00,,,0.00,,2013-07-04 15:33:00,
2013-07-04 11:43:00,84.0,69.0,30.19,SW,224,0.0,0.0,61,0.00,,,0.00,,2013-07-04 15:43:00,
2013-07-04 11:53:00,85.0,71.0,30.20,SE,141,4.0,4.0,63,0.00,,,0.00,,2013-07-04 15:53:00,
2013-07-04 12:02:00,85.0,71.0,30.20,SE,141,4.0,4.0,63,0.00,,,0.00,,2013-07-04 16:02:00,
2013-07-04 12:11:00,85.0,71.0,30.20,SE,141,4.0,4.0,63,0.00,,,0.00,,2013-07-04 16:11:00,
2013-07-04 12:22:00,85.0,71.0,30.20,SE,141,4.0,4.0,63,0.00,,,0.00,,2013-07-04 16:22:00,